To NAV CANADA Home Page Login to a new session Search on AWWS site Feedback and Comments Disclaimer Vers la page française équivalente Tips FAQ What's new on the site To the Forecasts and Observations / NOTAM section To "File a Flight Plan" website Publications and other links Update of the User's profile FIC Telephone Numbers My Weather Data Folder Route Weather Data Regional Weather Data Local Weather Data To the Forecasts and Observations / NOTAM section
Request Generated 05/25/2017 at 01:10:33 UTC . Weather information available at that time is displayed.

METAR/TAF

LA GRANDE-4/QC    (show WxCam)

METAR CYAH 250100Z AUTO 11005KT 9SM CLR 13/M06 A2986 RMK SLP125=
METAR CYAH 250000Z AUTO 08005KT 9SM CLR 16/M06 A2985 RMK SLP120
DENSITY ALT 1300FT=
METAR CYAH 242300Z AUTO 08005KT 020V100 9SM CLR 17/M06 A2984 RMK
SLP117 DENSITY ALT 1500FT=

*** REMARK        : Forecast period has ended; this was the last TAF issued
*** REMARQUE : La période de prévision est échue; ceci était le dernier TAF qui a été émis
TAF CYAH 241741Z 2418/2421 VRB03KT P6SM SKC
RMK FCST BASED ON AUTO OBS. NXT FCST WILL BE ISSUED AT 251045Z=
Your time UTC time
Weather data provided by Environment Canada and NAV CANADA